This is the latest recevied weather packets stored in our database for station/object KB1RMA-4. If no packets are shown the sender has not sent any weather packets the latest 10 day(s).
| Time | Temp. | Humidity | Pressure | Rain* | Wind** | Luminosity | Snow |
|---|---|---|---|---|---|---|---|
| 1787611659 | 25° C | 48% | 1012.6 hPa | 0 mm | - | 35 W/m² | - |
| 1787611355 | 25° C | 48% | 1012.7 hPa | 0 mm | - | 32 W/m² | - |
| 1787611055 | 25.56° C | 47% | 1012.6 hPa | 0 mm | - | 32 W/m² | - |
| 1787610751 | 25.56° C | 47% | 1012.6 hPa | 0 mm | - | 32 W/m² | - |
| 1787610446 | 25.56° C | 46% | 1012.6 hPa | 0 mm | - | 34 W/m² | - |
| 1787610146 | 26.11° C | 46% | 1012.7 hPa | 0 mm | - | 37 W/m² | - |
| 1787609845 | 26.11° C | 45% | 1012.6 hPa | 0 mm | - | 43 W/m² | - |
| 1787609540 | 26.11° C | 44% | 1012.5 hPa | 0 mm | - | 47 W/m² | - |
| 1787609240 | 26.11° C | 44% | 1012.6 hPa | 0 mm | - | 51 W/m² | - |
| 1787608934 | 26.67° C | 44% | 1012.4 hPa | 0 mm | - | 49 W/m² | - |
| 1787608629 | 26.67° C | 41% | 1012.5 hPa | 0 mm | - | 66 W/m² | - |
| 1787608324 | 26.67° C | 42% | 1012.4 hPa | 0 mm | - | 73 W/m² | - |
| 1787608020 | 26.67° C | 42% | 1012.5 hPa | 0 mm | - | 65 W/m² | - |
| 1787607717 | 27.22° C | 43% | 1012.4 hPa | 0 mm | - | 63 W/m² | - |
| 1787607413 | 27.22° C | 42% | 1012.5 hPa | 0 mm | - | 69 W/m² | - |
| 1787607110 | 27.22° C | 40% | 1012.4 hPa | 0 mm | - | 72 W/m² | - |
| 1787606810 | 27.78° C | 40% | 1012.5 hPa | 0 mm | - | 74 W/m² | - |
| 1787606509 | 27.78° C | 41% | 1012.5 hPa | 0 mm | - | 74 W/m² | - |
| 1787606208 | 28.33° C | 38% | 1012.4 hPa | 0 mm | - | 161 W/m² | - |
| 1787605902 | 28.33° C | 38% | 1012.4 hPa | 0 mm | - | 211 W/m² | - |
| 1787605601 | 28.89° C | 37% | 1012.1 hPa | 0 mm | - | 235 W/m² | - |
| 1787605298 | 28.89° C | 38% | 1012.4 hPa | 0 mm | - | 252 W/m² | - |
| 1787604997 | 28.89° C | 38% | 1012.5 hPa | 0 mm | - | 258 W/m² | - |
| 1787604697 | 28.33° C | 39% | 1012.4 hPa | 0 mm | - | 269 W/m² | - |
| 1787604397 | 28.33° C | 39% | 1012.5 hPa | 0 mm | - | 297 W/m² | - |
* Rain latest hour (hover to see other rain measurements)
** Current wind speed in m/s (hover to see current wind gust speed)